TimeEST,TemperatureF,Dew PointF,Humidity,Sea Level PressureIn,VisibilityMPH,Wind Direction,Wind SpeedMPH,Gust SpeedMPH,PrecipitationIn,Events,Conditions,WindDirDegrees,DateUTC
12:15 AM,44.6,26.6,49,29.98,10.0,South,10.4,-,N/A,,Clear,180,2012-11-23 05:15:00
12:35 AM,44.6,28.4,53,29.97,10.0,South,11.5,-,N/A,,Clear,190,2012-11-23 05:35:00
12:55 AM,44.6,28.4,53,29.96,10.0,South,10.4,-,N/A,,Clear,180,2012-11-23 05:55:00
1:15 AM,44.6,28.4,53,29.95,10.0,South,9.2,-,N/A,,Clear,190,2012-11-23 06:15:00
1:35 AM,44.6,28.4,53,29.94,10.0,South,10.4,-,N/A,,Clear,190,2012-11-23 06:35:00
1:55 AM,42.8,28.4,57,29.93,10.0,South,9.2,-,N/A,,Clear,180,2012-11-23 06:55:00
2:15 AM,44.6,28.4,53,29.93,10.0,South,9.2,-,N/A,,Clear,180,2012-11-23 07:15:00
2:35 AM,44.6,28.4,53,29.92,10.0,South,9.2,-,N/A,,Clear,180,2012-11-23 07:35:00
2:55 AM,44.6,28.4,53,29.91,10.0,South,10.4,-,N/A,,Partly Cloudy,190,2012-11-23 07:55:00
3:15 AM,46.4,28.4,50,29.89,10.0,South,12.7,-,N/A,,Mostly Cloudy,190,2012-11-23 08:15:00
3:35 AM,46.4,28.4,50,29.88,10.0,South,13.8,-,N/A,,Scattered Clouds,190,2012-11-23 08:35:00
3:55 AM,46.4,28.4,50,29.87,10.0,South,11.5,-,N/A,,Partly Cloudy,190,2012-11-23 08:55:00
4:15 AM,46.4,30.2,53,29.86,10.0,South,11.5,-,N/A,,Clear,190,2012-11-23 09:15:00
4:35 AM,46.4,30.2,53,29.85,10.0,South,12.7,-,N/A,,Clear,190,2012-11-23 09:35:00
4:55 AM,46.4,30.2,53,29.84,10.0,South,10.4,-,N/A,,Clear,190,2012-11-23 09:55:00
5:15 AM,46.4,30.2,53,29.83,10.0,South,10.4,-,N/A,,Clear,190,2012-11-23 10:15:00
5:35 AM,44.6,30.2,57,29.82,10.0,South,12.7,-,N/A,,Clear,190,2012-11-23 10:35:00
5:55 AM,46.4,30.2,53,29.81,10.0,South,12.7,19.6,N/A,,Clear,190,2012-11-23 10:55:00
6:15 AM,46.4,30.2,53,29.80,10.0,SSW,12.7,18.4,N/A,,Mostly Cloudy,200,2012-11-23 11:15:00
6:35 AM,46.4,30.2,53,29.79,10.0,South,13.8,21.9,N/A,,Scattered Clouds,190,2012-11-23 11:35:00
6:55 AM,46.4,30.2,53,29.79,10.0,SSW,15.0,20.7,N/A,,Mostly Cloudy,200,2012-11-23 11:55:00
7:15 AM,46.4,30.2,53,29.78,10.0,SSW,12.7,20.7,N/A,,Mostly Cloudy,200,2012-11-23 12:15:00
7:35 AM,46.4,32.0,57,29.78,10.0,SSW,13.8,21.9,N/A,,Overcast,210,2012-11-23 12:35:00
7:55 AM,46.4,33.8,62,29.78,10.0,SSW,10.4,19.6,N/A,,Overcast,200,2012-11-23 12:55:00
8:15 AM,46.4,33.8,62,29.78,10.0,SSW,12.7,20.7,N/A,,Overcast,200,2012-11-23 13:15:00
8:35 AM,44.6,35.6,71,29.77,10.0,SSW,13.8,-,N/A,,Overcast,210,2012-11-23 13:35:00
8:55 AM,44.6,35.6,71,29.77,10.0,SSW,11.5,17.3,N/A,,Overcast,210,2012-11-23 13:55:00
9:15 AM,44.6,37.4,76,29.77,8.0,SSW,11.5,-,N/A,,Overcast,210,2012-11-23 14:15:00
9:35 AM,44.6,37.4,76,29.77,7.0,SSW,11.5,16.1,N/A,,Overcast,210,2012-11-23 14:35:00
9:55 AM,42.8,39.2,87,29.77,3.0,SSW,9.2,-,N/A,,Overcast,200,2012-11-23 14:55:00
10:15 AM,42.8,39.2,87,29.76,5.0,South,12.7,-,N/A,,Overcast,190,2012-11-23 15:15:00
10:35 AM,42.8,39.2,87,29.76,10.0,SSW,10.4,-,N/A,,Overcast,200,2012-11-23 15:35:00
10:55 AM,44.6,41.0,87,29.75,10.0,SSW,9.2,-,N/A,,Overcast,210,2012-11-23 15:55:00
11:15 AM,44.6,41.0,87,29.74,10.0,SSW,10.4,-,N/A,,Overcast,210,2012-11-23 16:15:00
11:35 AM,44.6,41.0,87,29.74,10.0,SSW,11.5,17.3,N/A,,Overcast,200,2012-11-23 16:35:00
11:55 AM,46.4,41.0,81,29.72,10.0,SSW,11.5,17.3,N/A,,Overcast,210,2012-11-23 16:55:00
12:15 PM,46.4,41.0,81,29.71,10.0,SSW,13.8,20.7,N/A,,Mostly Cloudy,210,2012-11-23 17:15:00
12:35 PM,46.4,39.2,76,29.70,10.0,SW,13.8,20.7,N/A,,Overcast,220,2012-11-23 17:35:00
1:15 PM,44.6,39.2,81,29.71,10.0,WNW,10.4,20.7,N/A,,Mostly Cloudy,290,2012-11-23 18:15:00
1:35 PM,42.8,37.4,81,29.71,10.0,West,13.8,18.4,N/A,,Mostly Cloudy,270,2012-11-23 18:35:00
1:55 PM,46.4,37.4,71,29.70,10.0,West,13.8,19.6,N/A,,Partly Cloudy,280,2012-11-23 18:55:00
2:15 PM,46.4,35.6,66,29.70,10.0,West,11.5,20.7,N/A,,Clear,280,2012-11-23 19:15:00
2:35 PM,44.6,33.8,66,29.70,10.0,West,9.2,21.9,N/A,,Clear,280,2012-11-23 19:35:00
2:55 PM,44.6,33.8,66,29.70,10.0,WNW,15.0,21.9,N/A,,Clear,290,2012-11-23 19:55:00
3:15 PM,42.8,33.8,70,29.71,10.0,WNW,23.0,29.9,N/A,,Scattered Clouds,300,2012-11-23 20:15:00
3:35 PM,39.2,32.0,75,29.72,10.0,WNW,13.8,25.3,N/A,,Overcast,290,2012-11-23 20:35:00
3:55 PM,37.4,30.2,75,29.73,10.0,West,20.7,28.8,N/A,,Overcast,280,2012-11-23 20:55:00
4:15 PM,37.4,28.4,70,29.74,10.0,West,17.3,25.3,N/A,,Overcast,280,2012-11-23 21:15:00
4:35 PM,37.4,28.4,70,29.74,10.0,West,21.9,31.1,N/A,,Overcast,260,2012-11-23 21:35:00
4:55 PM,37.4,26.6,65,29.75,10.0,West,15.0,33.4,N/A,,Overcast,260,2012-11-23 21:55:00
5:15 PM,37.4,24.8,60,29.75,10.0,West,18.4,33.4,N/A,,Overcast,260,2012-11-23 22:15:00
5:35 PM,35.6,24.8,65,29.76,10.0,West,26.5,36.8,N/A,,Mostly Cloudy,270,2012-11-23 22:35:00
5:55 PM,35.6,24.8,65,29.76,10.0,WSW,25.3,32.2,N/A,,Overcast,250,2012-11-23 22:55:00
6:15 PM,35.6,24.8,65,29.77,10.0,WSW,17.3,29.9,N/A,,Overcast,240,2012-11-23 23:15:00
6:35 PM,35.6,24.8,65,29.77,10.0,WSW,17.3,26.5,N/A,,Overcast,240,2012-11-23 23:35:00
6:55 PM,35.6,24.8,65,29.77,10.0,SW,20.7,32.2,N/A,,Overcast,230,2012-11-23 23:55:00
7:15 PM,33.8,26.6,75,29.79,5.0,WSW,16.1,28.8,N/A,,Overcast,240,2012-11-24 00:15:00
7:35 PM,32.0,24.8,75,29.79,10.0,WSW,24.2,35.7,N/A,,Overcast,240,2012-11-24 00:35:00
7:55 PM,30.2,24.8,80,29.79,10.0,WSW,20.7,31.1,N/A,,Overcast,250,2012-11-24 00:55:00
8:15 PM,30.2,26.6,86,29.80,4.0,WSW,23.0,27.6,N/A,,Overcast,250,2012-11-24 01:15:00
8:35 PM,30.2,26.6,86,29.80,5.0,WSW,19.6,-,N/A,,Mostly Cloudy,250,2012-11-24 01:35:00
8:55 PM,28.4,26.6,93,29.80,1.8,WSW,17.3,21.9,N/A,,Overcast,250,2012-11-24 01:55:00
9:15 PM,30.2,26.6,86,29.80,2.0,West,17.3,23.0,N/A,,Overcast,260,2012-11-24 02:15:00
9:35 PM,30.2,24.8,80,29.80,10.0,West,15.0,20.7,N/A,,Overcast,260,2012-11-24 02:35:00
9:55 PM,30.2,24.8,80,29.80,6.0,WSW,15.0,19.6,N/A,,Overcast,250,2012-11-24 02:55:00
10:15 PM,30.2,24.8,80,29.80,5.0,WSW,11.5,19.6,N/A,,Overcast,250,2012-11-24 03:15:00
10:35 PM,30.2,24.8,80,29.80,7.0,West,17.3,24.2,N/A,,Mostly Cloudy,260,2012-11-24 03:35:00
10:55 PM,30.2,23.0,75,29.81,7.0,West,19.6,26.5,N/A,,Mostly Cloudy,270,2012-11-24 03:55:00
11:15 PM,30.2,23.0,75,29.79,10.0,West,15.0,23.0,N/A,,Mostly Cloudy,260,2012-11-24 04:15:00
11:35 PM,30.2,21.2,69,29.80,8.0,West,9.2,20.7,N/A,,Overcast,270,2012-11-24 04:35:00
11:55 PM,30.2,21.2,69,29.81,5.0,West,21.9,28.8,N/A,,Mostly Cloudy,270,2012-11-24 04:55:00